User: anonymous   Login
Location: Unspecified
(0.0000°N, 0.0000°E)
Time: 20:06:26
(UTC+00:00)
Language:

STARLINK-31149 - Orbit

View from above orbital plane
View from above orbital plane
View from above satellite
View from above satellite

Ground track
Ground track

The orbit is defined by the following mean orbital elements,

1 58863U          26145.55885072 +.00000000 +00000-0 +44464-4 0 00007
2 58863  43.0007 174.3712 0001165 272.5572  87.5146 15.27578856    09
Epoch (UTC): 25 May 2026 13:24:44
Eccentricity: 0.0001165
inclination: 43.0007°
perigee height: 482 km
apogee height: 484 km
right ascension of ascending node: 174.3712°
argument of perigee: 272.5572°
revolutions per day: 15.27578856
mean anomaly at epoch: 87.5146°

The dashed part of the orbit path shows where the satellite is in the earth's shadow,  

DLR